"Pseudo-MPEC" for N00hue0
Created 2021 Jan 15 20:07:15 UT using Find_Orb
Click here for an explanation of pseudo-MPECs
Astrometry: N00hue0 S2021 01 09p.s_*BOJ`UCt.-,l_+etae7O6@1^v[T^/mhQBlkR5e`vKS\V0quu
C51 N00hue0 s2021 01 09.$eN5IKKW/ZKReGD0y4O`0mF1eW(`,7ereTAjYST9X,X%*BYqs)L
C51 N00hue0 S2021 01 09fO]Q,elm1eBe`fE9@8qKQ1md)?]fk#N.9opeZlQuXPhSB`3Gkx;U
C51 N00hue0 s2021 01 09(ZlHKodS#AlX6CK.NAXht!(aHs`=(BQtjVC//GPVYfrk[+kcZPdb
C51 N00hue0 S2021 01 097g6w^?jm0F6?0]I@pils[M$Og`Y,#KM9H11B!$,;%fRN,I=xvRTY
C51 N00hue0 s2021 01 09/usi'v:.i@!8uYDQt#=M+#PIVLU\4E!.4]^(kNye)k;b6F7myAnQ
C51 N00hue0 S2021 01 09@WgF3UT!ll^8t
Astrometry]##Nr@?Wf7Oe2CAd=R+qxL,t?yXWM
C51 N00hue0 s2021 01 09o4QwaKZ\\q1!).BGKtSBMKHYEg2Wx`LgkJ(p@bR3=#pKyvsKrP@Z
C51 N00hue0 S2021 01 09PbF-:,4[Q^cGX%SZ8p7cA6[qc`id6dxfxN@_b6F?8XEk87b)]?5U
C51 N00hue0 s2021 01 09\ux2xRBQc6h?Lh^dF]V8uruOUnedQ`cQL%*%H[+eqN^wpBqr/UD_
C51 N00hue0 S2021 01 09*ySId*d'66`to.UUM)1WS.sJhE4Cis'iLQ-1o4G+tA!]P0d09PgF
C51 N00hue0 s2021 01 09^;qL`+IPXPs*[;Pn6B7kYg!DQnts:241^tpaJ(7wgM#\WKymn68'
C51 N00hue0 S2021 01 10X9Kcay\1pgIE80I@G-O$j`PCTx3l%k`+/G*k#pksa]^d#`eeij/O
C51 N00hue0 s2021 01 10tR]Le*+1j6@kueoE':BwVaL?_NijZLVHe8+lgJ;2,U+(Rai,XLq2
C51 N00hue0 S2021 01 11T`#5gsiwuTx49D!c_honsxFZARl]XdJ3J'7EiPygd8e?U$-KrZ#o
C51 N00hue0 s2021 01 11DJa\]%,J*3LugKd=JQ[pUKtPlQSdFRia4LgtvqalNMWFQb[GYjr-
C51 N00hue0 S2021 01 11aI8V8.-yv3@p/kW1^`8o`C1AjDf=RMf,evJ#_2V[EwR/hc@I3O/V
C51 N00hue0 s2021 01 11;+!_K7x^w=ZHt?4*UY'-hJpc*tPZ]`uha4m%Lk=#bR%6K9AMgoL8
C51 N00hue0 S2021 01 11X12bEII@l0._j4Qa8m9=*eW%E*'3y.%2?7Nd:w^,bllR'w9?j-\N
C51 N00hue0 s2021 01 11rmSqQ[*+i/qbE;CdG+0977j*0[7Gc/:='FReQAOH]OmcDjMFO79f
C51 N00hue0 S2021 01 11O*q9e.`(rUES!wr,rG.UQUruFyAO75f?gY^u@fGO2*cs6\txkKSd
C51 N00hue0 s2021 01 11!Scv)T1ytPfThatUc#Ac-*6w@1u26(P7\m4?HyBP*vEJM.MnL4S1
C51 N00hue0 |C2021 01 12sM`_di5U%]Cx+Cp'MTXEy(sb0AhDt*0n2J-P9C+rOJeL@lyt$DN-
807 N00hue0 |C2021 01 12qjq92og%5NPC$CfdpFm@e?;1ri6pqwhan[scHji^rs'wG;fG.af'
807 N00hue0 |C2021 01 12wykgo=d7$XrRvuv?3n8nE.o`uH6\O8Y(]!ReiYxetka9$/+rU9g;
807 N00hue0 |C2021 01 12h]d$?mpRvTSN.?=A=3,k$G*(W5Tf(A'qXEOw9FP5T)=b4^sHDdLF
807 N00hue0 |C2021 01 12n/W]cCf_$7=Jfo=fy,@(I]_]AX+?C2ekuB)^eowj`ond1mc=gEfJ
807 N00hue0 |C2021 01 12^#E=/?:u*_p'h.F7`jwU^XsIK6f8[,=@07s[QH@jGYLmp2^HAv:F
807 N00hue0 |C2021 01 12+PfwfMn`71wdF(2@LPg+V5VCMX#8YICcj@)=5iT@*AOZbZjwjg$H
807 N00hue0 |C2021 01 12,(`?+]\uXf8m/FGPGRHh[\QpM(`naci#staVp?vbf+/g5MhhPW#2
807 N00hue0 |C2021 01 12bs_D4T+w.N\#;ls4h5TsDAcL0+A.4](N[\AmDoGr=rEQ:[`hY'Q_
807 N00hue0 |C2021 01 12k\;fj*#LX9BnZ58)7sVTEU_`jENJ'%cLa%9+cpXu/TiCD['[T]5l
807 N00hue0 S2021 01 12t`]tha!mJM.)fml7%gZ0D$lK9bNT:kv(RQOW%7`E+-\0N]D_[HQ`
C51 N00hue0 s2021 01 12;+Hi`VFHv]TNf1S$LRc35MaLrF-tQG6]oYC
redacted;%YwMV4\^
C51 N00hue0 S2021 01 12!mkYsCv,2In8unyJF`];?ZuS1HcF*G!Rl4Kid2g:cNn3N:Me0FE+
C51 N00hue0 s2021 01 12y1-bWlc2D/Iyd[UQ;Inj='rX.^hU]MTnZq%L47JD7NCU/R-%!!o?
C51 N00hue0 1C2021 01 12]gQE%scF/WZ]a:N18f_[AI3((i^w.u9@x2Aa2*l0U-$*?=JXRE[@
Q62 N00hue0 1C2021 01 12Nc/f:=a30'1vL.`DTpbO^[l.mxS)[lMGaD.NTj9PFe8-cmWc/`!j
Q62 N00hue0 1C2021 01 12,/7+=@IxgQ(ubV*,I4ShM:QtKo)2pMZIw_MO$ObSlr]xAL+/yy`M
Q62 N00hue0 C2021 01 12KUV7]U`!Y7:`@tJ\qT/:u5F^4EyaJ.qa4TqN/*e$j,x.V[YLiBfe
Q38 N00hue0 C2021 01 12Wf#Ef`61WREeINOS9Swy+_/f[0;uLhRrTUXEfjwe/9^S-7P`w5pc
Q38 N00hue0 C2021 01 12-+M-HOvU!*03)P#Zo3Z/Kgp=qV:`Wn2+J?-yobTTL
clickh]Er2x
Q38 N00hue0 KC2021 01 12[^f+U]aoxhl1ps?Ji[$w.lZd8R6$QKbqVq.f,`mR:XI3QsV3QSuD
E23 N00hue0 KC2021 01 12h96@PnK!WvXN+Pokjx*t!qLt(9%54##M9DW.IY?FkG+upve2tI-u
E23 N00hue0 KC2021 01 12t3IL)8:,oAFmy.=2'cW(nRyD=1?@rn:_r=1!/%-$G-rFoi2vRi%A
E23 N00hue0 3C2021 01 12XD8i=2fL!8Cg9,l19b]9W%.2ng2iE0'hN9*n@`,cMyJsS53;rsR,
Q62 N00hue0 3C2021 01 12[dTHvDm`%[hs@\9BV-uO;mjgt=?Zx]43Xmt8Ob1Iy$OAZ6=;lV06
Q62 N00hue0 3C2021 01 12x*.q`URaheTb#]Kh,$l5ELKABbxRSP6aGTG`bkK=-(T2p;6b*6iV
Q62 N00hue0 AC2021 01 12,0Rob*H8tc`(dhMan
herejovx'm9r/D.xT:/,cKjeddN$l9@4f((
Q62 N00hue0 AC2021 01 120Q%bXL*[84T-w:pH^\2djH#1\Cme-DDpVJLa_LSsZ`Jt1sXG_41P
Q62 N00hue0 S2021 01 12\iaf.]NR[Db+pIkvWVqi*(b)!PoQ2^l*$TBR,#PIcFr.v)LR!o\)
C51 N00hue0 s2021 01 121xggN\r:@eExsAQZx')a(UI$_PW`EmC1l0xtlp5254e/UiSCLo%'
C51 N00hue0 KC2021 01 13r*fH;LH.pYT1
forOM'd9qR$Z-@I:OcCV\MC^BI,+s?_TP4'2R@]*
X31 N00hue0 KC2021 01 13E=ke@`)oI'K_.HxQL*\E$uy.0tGW!FtFen,I=0PCI^kGiq,%=0!p
X31 N00hue0 KC2021 01 13rewm'xJ\xy)cGi2eSb.W!y$jqdphNK^G65:q3dTe=7OeZaP4J^k%
X31 N00hue0 KC2021 01 137Iob4?PjicZ$#RlB`W_w,$1nTyrljw^nFF\fQx0@bkx?wja]H!4.
X31 N00hue0 C2021 01 13%E4ENZi%7L?slpLVjhGh-xYI[[$Ii)oFqnN,7TJOCL9N(]p*LX(_
G39 N00hue0 C2021 01 13'dt+g=h\=:*lFBJqns,a4ELK*G0ee^JR!mi?asea;e1fEY:QApe@
G39 N00hue0 C2021 01 13B*
explanationk'QUlp9qHndk3Kex2Z=w!bW;9Re%r-/=4:L[0?R
G39 N00hue0 C2021 01 1323p$!ACS-Wq*XY;Msm8R?;\hUb#?'U+;KcF,oSf8vS$s!pK@pfW9
G39 N00hue0 C2021 01 13u?n!LyQ=2xI[+gHCQvuRlL=@]Vo#L=$xpt*3,(7ggXievkpr@H?t
G39 N00hue0 KC2021 01 13N\n2l=irZmKQAUdM7!n$48C0]9]$aVRjl!8k0y8[*Y6H`'$.,8FO
I47 N00hue0 KC2021 01 13*i9b*ontaoPy4A0g3EKl6s,=Qo#i;Slyv_;U0UpY+pG'Z4:Y9ao3
I47 N00hue0 KC2021 01 13m3b6.XCT1s9MTH7/?pniuI,6(FwR3D?Q-U9?SGPLa#cni(e^q)3t
I47 N00hue0 3C2021 01 135IW5/HyN,]m%j;UqV3w?'AF%sO8H?%TphWop1U-$Zx?jouWF;8g=
W88 N00hue0 %C2021 01 13_Fjh9la/Kp%9MOc^*qb?I\crW@rX`iq,4`yG.RqhED=c\GZy@][)
W88 N00hue0 %C2021 01 13U8#se\3TS@Bm?Io(UfpT13=G4QFU4'8i@=+RP9+J\SD_HLn4BHy/
W88 N00hue0 %C2021 01 13@GCqmR,uEOoalT9wGxG]+kBSqjBm9AYhF*6Rjew@Z^fhQc5*es50
W88 N00hue0 KC2021 01 13oi\`eOS,RfORpe*aP([d@G,LeuV*nEnhPXS1`2QidGTHb^*CKE.Q
I47 N00hue0 3C2021 01 13d]aHR,JOm((MmB_D1IE?qbWV+Y[*A2H%Mp1335bZ=E-dAlbSo-L@
W88 N00hue0 KC2021 01 13o*vU=W99CbrpX)*krFK5k2S3X;@'FLPx'H0ta-\Y$;b`4.f#x0gW
I47 N00hue0 %C2021 01 13%a8'-:S8m4`#/!dk4B`**Grm3uGe_4vdu5k\OytBgZyv[dBo,(yk
W88 N00hue0 *C2021 01 13)K^F_\_MXImo^CHYe5me2O)Txi6RZ@#r6$1r=^Qg`x6EA^$asK_/
E10 N00hue0 *C2021 01 13mSx*_3$_ntqg8UrYppo;l-sSDYfyBY,@=E-AaG6\WNM)aCSV8E=1
E10 N00hue0 *C2021 01 13Rw0ecc-wo(n:5jU\kT7?\tYM6rMS]YQmEn0,E%4:s$*O`d@oU:QO
E10 N00hue0 C2021 01 14t0V1\]@=IgbrxnqW]eQaI!3pB:!Ki2(TneLh\PVDH.mse*_k.vlv
Q38 N00hue0 C2021 01 14QcrED4PLhyk;ANkQLm_s@K#%Anhr;d#X\HvZ7'`YRN!ZsS`@8Za=
Q38 N00hue0 C2021 01 147f9`Te!rBY/DUi[\Po(C=K7=6x5N?N4sm5F5nUY#Do`tdVVaNLXy
Q38 Station data: (807) Cerro Tololo Observatory, La Serena (S30.169136 W70.805900) Chile. (C51) WISE. Measurers A. Mainzer, E. Wright, J. Bauer, T. Grav, J. Dailey, J. Masiero, R. Cutri, R. McMillan, R. Walker. (E10) Siding Spring-Faulkes Telescope South (S31.273173 E149.070280) Australia/NSW. (E23) Arcadia (S33.621199 E151.071190) Australia/NSW. (G39) ROAD, San Pedro de Atacama (S22.953105 W68.179610) Chile. (I47) Pierre Auger Observatory, Malargüe (S35.495442 W69.449700) Argentina. (Q38) Swan Hill (S35.352090 E143.550600) Australia/VIC. Observer M. Mattiazzo. (Q62) iTelescope Observatory, Siding Spring (S31.273289 E149.064420) Australia/NSW. 0.50-m f/6.8 astrograph + CCD + focal reducer, 0.70-m f/6.6 astrograph + CCD. (W88) Slooh.com Chile Observatory, La Dehesa (S33.269128 W70.534300) Chile. 0.35-m f/11 Schmidt-Cassegrain + CCD. (X31) Galileo Galilei Observatory, Oro Verde (S31.823022 W60.520660) Argentina. Orbital elements: N00hue0 Perihelion 2021 Jul 14.952065 +/- 2.08916 TT = 22:50:58 (JD 2459410.452065) Epoch 2021 Jan 14.0 TT = JDT 2459228.5 Earth MOID: 0.9782 AutoNEOCP q 1.96606072 +/- 0.00979059 (J2000 ecliptic) H 12.4 G 0.15 Peri. 356.05909 +/- 0.0415070 Node 154.43679 +/- 0.4256248 e 1.0066078 +/- 0.0344764 Incl. 78.18246 +/- 0.1909327 From 64 observations 2021 Jan. 9-14; mean residual 0".60
